Regional Weather Roundup
Issued by NWS

Home | Current Version | Previous Version | Text Only | Print | Product List | Glossary Off
Versions: 1 2 3 4 5 6 7 8 9 10 11 12 13 14 15 16 17 18 19 20 21 22 23 24 25 26 27 28 29 30 31 32 33 34 35 36 37 38 39 40 41 42 43 44 45 46 47 48 49 50

000
ASUS43 KIND 301259
RWRIN

WEATHER ROUNDUP FOR INDIANA
NATIONAL WEATHER SERVICE INDIANAPOLIS IN
900 AM EDT TUE JUN 30 2015

NOTE: "FAIR" INDICATES FEW OR NO CLOUDS BELOW 12,000 FEET WITH NO
SIGNIFICANT WEATHER AND/OR OBSTRUCTIONS TO VISIBILITY.

* - STATION DOES NOT REPORT WEATHER SUCH AS PRECIPITATION OR FOG.

+ - STATION NOT QUALITY CONTROLLED BY THE NATIONAL WEATHER SERVICE.
    USE DATA WITH CAUTION...ESPECIALLY DEWPOINT AND RELATIVE
    HUMIDITY OBSERVATIONS.

INZ001>003-010>013-019-020-301400-
NORTHWEST INDIANA

CITY           SKY/WX    TMP DP  RH WIND       PRES   REMARKS
GARY /AIRPORT/ SUNNY    N/A N/A N/A W6        29.81R
RENSSELAER +   MOSUNNY   66  64  94 W6        29.83S
VALPARAISO     PTSUNNY   64  63  96 W7        29.81S

$$

LMZ046-743>745-301400-
SOUTHERN LAKE MICHIGAN

STATION/POSITION TIME  TEMP    WIND        PRES    WAVE
                       AIR SEA DIR/SP/G            HT
                 (UTC) (F)     (DEG/KT/KT) (MB)    (FT)
BURNS HARBOR     1200   65     270/  8/ 10 1009.8R
MICHIGAN CITY    1200   64     200/  7/  8   N/A
5NW MICH CITY    1200   65 65  270/ 10/ 12   N/A     1

$$

INZ004-005-014>016-021>024-301400-
NORTH CENTRAL INDIANA

CITY           SKY/WX    TMP DP  RH WIND       PRES   REMARKS
ELKHART        CLOUDY    64  64 100 CALM      29.82R FOG
GOSHEN         LGT RAIN  64  62  93 S6        29.81S FOG
SOUTH BEND     CLOUDY    65  63  93 S5        29.81S FOG

$$

INZ006>009-017-018-025>027-301400-
NORTHEAST INDIANA

CITY           SKY/WX    TMP DP  RH WIND       PRES   REMARKS
ANGOLA *+      CLOUDY    63  54  72 S5        29.83R
FORT WAYNE     CLOUDY    64  62  93 S7        29.83F FOG

$$

INZ028-029-035-036-043>045-051>053-301400-
WEST CENTRAL INDIANA

CITY           SKY/WX    TMP DP  RH WIND       PRES   REMARKS
CRAWFORDSVL +  CLOUDY    64  62  94 SW9       29.85F
GREENCASTLE +  MOSUNNY   64  61  88 W3        29.87R
LAFAYETTE      CLOUDY    64  63  96 SW3       29.83S FOG
TERRE HAUTE    MOSUNNY   70  66  87 W8        29.86R

$$

INZ030>032-037>040-046>048-054>057-064-065-301400-
CENTRAL INDIANA

CITY           SKY/WX    TMP DP  RH WIND       PRES   REMARKS
ANDERSON       PTSUNNY   66  63  88 W6        29.86
COLUMBUS       MOSUNNY   68  64  88 SW6       29.87
INDIANAPOLIS   PTSUNNY   67  63  87 SW7       29.85R
-EAGLE CREEK   PTSUNNY   66  63  90 CALM      29.85R
KOKOMO *+      CLOUDY    63  61  94 W10       29.83S
MT COMFORT *+  PTSUNNY   66 N/A N/A SW6       29.86R
SHELBYVILLE    MOSUNNY   70  65  84 SW7       29.85S

$$

INZ033-034-041-042-049-050-058-059-301400-
EAST CENTRAL INDIANA

CITY           SKY/WX    TMP DP  RH WIND       PRES   REMARKS
MUNCIE         CLOUDY    66  62  87 W7        29.84S

$$

INZ060-061-067>069-081>083-085>088-301400-
SOUTHWEST INDIANA

CITY           SKY/WX    TMP DP  RH WIND       PRES   REMARKS
EVANSVILLE     SUNNY     72  65  78 SW7       29.89R
HUNTINGBURG *+ SUNNY     70  64  83 S5        29.89S

$$

INZ062-063-066-070>080-084-089>092-301400-
SOUTH CENTRAL AND SOUTHEAST INDIANA

CITY           SKY/WX    TMP DP  RH WIND       PRES   REMARKS
BLOOMINGTON    SUNNY     69  65  86 W7        29.86S
MADISON *+     SUNNY     68  63  83 S7        29.91R
SEYMOUR +      SUNNY     72  66  83 SW6       29.88R

$$



USA.gov is the U.S. government's official web portal to all federal, state and local government web resources and services.